St Gervais, France 16 day weather forecast

Slopes altitude range -1 m - -1m

Number of lifts: -1 Pistes: -1km

In some cases the lift and piste totals shown are for the ski domain (e.g. Three Valleys) rather than individual resort (e.g. Courchevel)

Overview

The 16 day weather forecast is fully updated 4 times every day.

    • Sun 16 JUN 2019
    • Sun 16
    • 9C 18C
    • Mon 17 JUN 2019
    • Mon 17
    • 14C 21C
    • Tue 18 JUN 2019
    • Tue 18
    • 16C 22C
    • Wed 19 JUN 2019
    • Wed 19
    • 16C 24C
    • Thu 20 JUN 2019
    • Thu 20
    • 15C 18C
    • Fri 21 JUN 2019
    • Fri 21
    • 13C 18C
    • Sat 22 JUN 2019
    • Sat 22
    • 12C 17C
    • Sun 23 JUN 2019
    • Sun 23
    • 13C 21C
    • Mon 24 JUN 2019
    • Mon 24
    • 13C 20C
    • Tue 25 JUN 2019
    • Tue 25
    • 16C 23C
    • Wed 26 JUN 2019
    • Wed 26
    • 4C 6C
    • Thu 27 JUN 2019
    • Thu 27
    • 5C 6C
    • Fri 28 JUN 2019
    • Fri 28
    • 10C 13C
    • Sat 29 JUN 2019
    • Sat 29
    • 12C 17C
    • Sun 30 JUN 2019
    • Sun 30
    • 12C 17C
    • Mon 01 JUL 2019
    • Mon 01
    • 11C 16C

Date:

Time Type 0°C level Temp Chill Snow Cloud Speed Gust Dir Press
12:00 3508m 18°C 18_6 0cm 55% 6mph 5mph 1019mB
15:00 3596m 18°C 18_6 0cm 15% 6mph 6mph 1018mB
18:00 3795m 18°C 18_4 0cm 8% 4mph 5mph 1018mB
21:00 3926m 9°C 9_3 0cm 8% 3mph 3mph 1020mB
0:00 3888m 9°C 9_2 0cm 53% 2mph 3mph 1020mB
3:00 3861m 8°C 8_2 0cm 64% 2mph 3mph 1019mB
6:00 3847m 8°C 8_1 0cm 33% 1mph 1mph 1019mB
9:00 3808m 14°C 14_4 0cm 0% 4mph 3mph 1018mB
12:00 3778m 21°C 21_7 0cm 0% 7mph 5mph 1017mB
15:00 3814m 21°C 21_5 0cm 5% 5mph 5mph 1016mB
18:00 3752m 21°C 21_2 0cm 35% 2mph 3mph 1016mB
21:00 3834m 12°C 12_3 0cm 100% 3mph 3mph 1017mB
0:00 3723m 11°C 11_4 0cm 83% 4mph 4mph 1018mB
3:00 3716m 11°C 11_4 0cm 24% 4mph 4mph 1017mB
6:00 3689m 11°C 11_3 0cm 17% 3mph 3mph 1017mB
9:00 3717m 16°C 16_4 0cm 97% 4mph 4mph 1016mB
12:00 3745m 22°C 22_3 0cm 98% 3mph 4mph 1015mB
15:00 3694m 23°C 23_4 0cm 49% 4mph 5mph 1014mB
18:00 3657m 23°C 23_2 0cm 24% 2mph 3mph 1014mB
21:00 3584m 13°C 13_3 0cm 0% 3mph 4mph 1016mB
0:00 3733m 12°C 12_4 0cm 20% 4mph 5mph 1015mB
3:00 3657m 12°C 12_5 0cm 99% 5mph 5mph 1014mB
6:00 3650m 12°C 12_6 0cm 90% 6mph 6mph 1013mB
9:00 3661m 16°C 16_4 0cm 7% 4mph 10mph 1012mB
12:00 3651m 24°C 24_7 0cm 18% 7mph 14mph 1011mB
15:00 3658m 24°C 24_6 0cm 49% 6mph 13mph 1011mB
18:00 3666m 24°C 24_4 0cm 56% 4mph 5mph 1012mB
21:00 3666m 12°C 12_1 0cm 69% 1mph 2mph 1014mB
0:00 3667m 11°C 11_3 0cm 65% 3mph 4mph 1014mB
3:00 3600m 11°C 11_2 0cm 98% 2mph 2mph 1014mB
6:00 3568m 10°C 10_1 0cm 99% 1mph 1mph 1014mB
9:00 3491m 15°C 15_4 0cm 33% 4mph 5mph 1013mB
12:00 3480m 18°C 18_5 0cm 66% 5mph 5mph 1013mB
15:00 3498m 19°C 19_3 0cm 100% 3mph 5mph 1013mB
18:00 3460m 19°C 19_2 0cm 100% 2mph 3mph 1014mB
21:00 3376m 11°C 11_3 0cm 91% 3mph 3mph 1016mB
0:00 3418m 10°C 10_3 0cm 54% 3mph 3mph 1016mB
3:00 3377m 9°C 9_2 0cm 0% 2mph 2mph 1016mB
6:00 3328m 8°C 8_1 0cm 0% 1mph 1mph 1016mB
9:00 3435m 13°C 13_5 0cm 61% 5mph 5mph 1016mB
12:00 3490m 18°C 18_4 0cm 80% 4mph 4mph 1015mB
15:00 3484m 18°C 18_3 0cm 92% 3mph 3mph 1014mB
18:00 3465m 18°C 18_5 0cm 96% 5mph 6mph 1015mB
21:00 3411m 11°C 11_4 0cm 100% 4mph 6mph 1017mB
0:00 3441m 8°C 8_2 0cm 95% 2mph 2mph 1017mB
3:00 3340m 8°C 8_1 0cm 53% 1mph 2mph 1017mB
6:00 3316m 8°C 8_1 0cm 57% 1mph 1mph 1017mB
9:00 3352m 12°C 12_4 0cm 50% 4mph 3mph 1016mB
12:00 3386m 17°C 17_4 0cm 70% 4mph 4mph 1015mB
15:00 3465m 18°C 18_4 0cm 87% 4mph 3mph 1014mB
18:00 3428m 18°C 18_2 0cm 54% 2mph 2mph 1015mB
21:00 3404m 10°C 10_3 0cm 59% 3mph 4mph 1017mB
0:00 3250m 9°C 9_4 0cm 61% 4mph 5mph 1017mB
3:00 3186m 9°C 9_3 0cm 100% 3mph 4mph 1016mB
6:00 3291m 8°C 8_2 0cm 51% 2mph 2mph 1017mB
9:00 3377m 13°C 13_3 0cm 86% 3mph 5mph 1017mB
12:00 3546m 21°C 21_5 0cm 92% 5mph 5mph 1016mB
15:00 3513m 21°C 21_5 0cm 100% 5mph 5mph 1015mB
18:00 3543m 21°C 21_2 0cm 85% 2mph 3mph 1016mB
21:00 3814m 7°C 7_2 0cm 23% 2mph 3mph 1018mB
0:00 4082m 7°C 7_5 0cm 53% 5mph 6mph 1018mB
3:00 4184m 7°C 7_5 0cm 61% 5mph 6mph 1018mB
6:00 4311m 7°C 7_4 0cm 61% 4mph 4mph 1018mB
9:00 4413m 13°C 13_3 0cm 57% 3mph 5mph 1017mB
12:00 4464m 20°C 20_5 0cm 78% 5mph 7mph 1016mB
15:00 4419m 20°C 20_5 0cm 0% 5mph 5mph 1015mB
18:00 4448m 20°C 20_3 0cm 0% 3mph 4mph 1016mB
21:00 4504m 11°C 11_6 0cm 0% 6mph 7mph 1018mB
0:00 4490m 11°C 11_5 0cm 0% 5mph 6mph 1019mB
3:00 4426m 10°C 10_5 0cm 0% 5mph 6mph 1018mB
6:00 4419m 10°C 10_5 0cm 0% 5mph 6mph 1017mB
9:00 4410m 16°C 16_3 0cm 0% 3mph 6mph 1017mB
12:00 4307m 23°C 23_6 0cm 0% 6mph 10mph 1016mB
15:00 4304m 23°C 23_6 0cm 0% 6mph 13mph 1015mB
18:00 4377m 23°C 23_4 0cm 18% 4mph 5mph 1016mB
21:00 4285m 10°C 10_3 0cm 74% 3mph 4mph 1018mB
0:00 4150m 9°C 9_2 0cm 66% 2mph 3mph 1018mB
3:00 4007m 10°C 10_4 0cm 100% 4mph 4mph 1018mB
6:00 3793m 9°C 9_5 0cm 100% 5mph 5mph 1017mB
Afternoon 0.25mm 0.6875 2564m 6°C 6_5 0cm 98% 5mph 5mph 1017mB
Morning 0.166667mm 0.5 2300m 1°C 1_5 4cm 95% 5mph 5mph 1017mB
Afternoon 0.0833333mm 0.25 2519m 6°C 6_6 2cm 86% 6mph 7mph 1018mB
Morning 0mm 0 3344m -1°C -1_4 0cm 22% 4mph 5mph 1021mB
Afternoon 0mm 0 3883m 13°C 13_5 0cm 12% 5mph 5mph 1018mB
Morning 0mm 0 3892m 3°C 3_2 0cm 0% 2mph 2mph 1018mB
Afternoon 0mm 0 3906m 17°C 17_5 0cm 64% 5mph 5mph 1014mB
Morning 0mm 0 4151m 3°C 3_1 0cm 0% 1mph 1mph 1013mB
Afternoon 0mm 0 4159m 17°C 17_5 0cm 34% 5mph 4mph 1010mB
Morning 0mm 0 3883m 5°C 5_1 0cm 8% 1mph 1mph 1010mB
Afternoon 0.354167mm 1.0625 3638m 16°C 16_5 0cm 77% 5mph 5mph 1010mB
Morning 0.0833333mm 0.25 3515m 6°C 6_4 0cm 92% 4mph 4mph 1013mB

16 day outlook at a glance

Forecast issued: 6/16/2019 2:33:31 PM

Chat

Your comments and questions. In a resort? Let us know what it's like!


Characters left 250

For terms and conditions see Readers Comments on the Cookie and privacy policy page.